FW1198 Weather Reports


time (UTC)temp
F
wind
direction
speed
knots
gust
knots
rain 1hr
in
rain 24hr
in
rain mn
in
humidity
%
barometer
mb
20230208163015 43 171 0.0 0.9 0.00 0.00 0.00 88 1029.1
20230208161507 41 171 0.0 0.9 0.00 0.00 0.00 90 1028.9
20230208160005 39 171 0.9 2.6 0.00 0.00 0.00 92 1028.7
20230208154505 38 169 0.9 1.7 0.00 0.00 0.00 92 1028.8
20230208153005 38 169 0.0 1.7 0.00 0.00 0.00 92 1028.8
20230208151504 37 169 0.9 1.7 0.00 0.00 0.00 92 1028.7
20230208150003 37 169 0.9 2.6 0.00 0.00 0.00 92 1028.6
20230208144501 37 164 0.9 2.6 0.00 0.00 0.00 91 1028.6
20230208143105 37 164 0.9 1.7 0.00 0.00 0.00 91 1028.4
20230208141603 37 164 0.9 2.6 0.00 0.00 0.00 92 1028.2
20230208140108 37 159 0.9 2.6 0.00 0.00 0.00 92 1028.1
20230208134559 37 199 0.9 1.7 0.00 0.00 0.00 91 1028.0
20230208133054 37 199 0.9 1.7 0.00 0.00 0.00 90 1027.8
20230208131552 37 199 0.0 0.0 0.00 0.00 0.00 90 1027.6
20230208130051 38 199 0.9 2.6 0.00 0.00 0.00 90 1027.4
20230208124550 37 176 0.9 0.0 0.00 0.00 0.00 91 1027.2
20230208123047 38 176 0.0 0.9 0.00 0.00 0.00 90 1027.1
20230208121545 38 176 0.0 1.7 0.00 0.00 0.00 90 1027.3
20230208120105 39 178 0.9 2.6 0.00 0.00 0.00 90 1027.4
20230208114547 38 206 0.0 1.7 0.00 0.00 0.00 90 1027.5
20230208113042 38 206 0.0 1.7 0.00 0.00 0.00 89 1027.5
20230208111541 39 178 0.0 2.6 0.00 0.00 0.00 90 1027.2
20230208110042 39 178 0.9 2.6 0.00 0.00 0.00 89 1027.2
20230208104548 39 178 0.0 2.6 0.00 0.00 0.00 88 1027.3
20230208103035 40 180 0.0 1.7 0.00 0.00 0.00 88 1027.4
20230208101536 40 180 1.7 2.6 0.00 0.00 0.00 88 1027.4
20230208100046 40 196 0.9 1.7 0.00 0.00 0.00 88 1027.7
20230208094528 40 185 0.9 2.6 0.00 0.00 0.00 87 1027.6
20230208093027 41 186 1.7 2.6 0.00 0.00 0.00 86 1027.7
20230208091526 41 196 0.9 2.6 0.00 0.00 0.00 86 1027.8
20230208090023 41 180 0.9 2.6 0.00 0.00 0.00 86 1027.8
20230208084520 42 180 0.9 2.6 0.00 0.00 0.00 85 1027.9
20230208083018 42 143 1.7 2.6 0.00 0.00 0.00 84 1028.0
20230208081537 42 161 0.9 2.6 0.00 0.00 0.00 85 1028.2
20230208080013 43 132 0.0 1.7 0.00 0.00 0.00 83 1028.3
20230208074515 43 132 0.0 0.0 0.00 0.00 0.00 81 1028.0
20230208073012 44 132 0.0 0.0 0.00 0.00 0.00 80 1027.9
20230208071512 44 130 0.0 1.7 0.00 0.00 0.00 79 1027.8
20230208070056 45 188 0.0 0.9 0.00 0.00 0.00 78 1027.7
20230208064608 45 188 0.0 2.6 0.00 0.00 0.00 77 1027.7
20230208063058 46 172 0.9 3.5 0.00 0.00 0.00 77 1027.8
20230208061600 46 190 0.9 2.6 0.00 0.00 0.00 76 1027.9
20230208060111 47 188 0.9 3.5 0.00 0.00 0.00 76 1027.9
20230208054555 47 199 1.7 3.5 0.00 0.00 0.00 76 1028.0
20230208053056 47 215 0.9 3.5 0.00 0.00 0.00 75 1028.0
20230208051558 48 204 1.7 3.5 0.00 0.00 0.00 76 1028.0
20230208050104 48 194 0.9 2.6 0.00 0.00 0.00 76 1028.0
20230208044552 48 190 0.9 1.7 0.00 0.00 0.00 75 1028.0
20230208043059 48 185 0.9 2.6 0.00 0.00 0.00 75 1028.0
20230208041606 49 185 1.7 2.6 0.00 0.00 0.00 74 1027.9
20230208040051 50 199 0.9 2.6 0.00 0.00 0.00 72 1027.8
20230208034558 51 221 0.0 1.7 0.00 0.00 0.00 70 1027.7
20230208033055 52 237 0.9 1.7 0.00 0.00 0.00 67 1027.6
20230208031553 53 289 0.9 2.6 0.00 0.00 0.00 65 1027.5
20230208030051 53 273 0.9 2.6 0.00 0.00 0.00 65 1027.3
20230208024547 54 232 0.9 1.7 0.00 0.00 0.00 63 1027.1
20230208023049 55 291 0.9 1.7 0.00 0.00 0.00 59 1026.9
20230208021557 56 345 0.0 1.7 0.00 0.00 0.00 56 1026.8
20230208020049 56 345 0.0 2.6 0.00 0.00 0.00 55 1026.8
20230208014544 57 325 1.7 5.2 0.00 0.00 0.00 54 1026.7
20230208013043 58 333 3.5 6.1 0.00 0.00 0.00 53 1026.6
20230208011542 59 334 1.7 5.2 0.00 0.00 0.00 53 1026.4
20230208010043 60 344 2.6 7.0 0.00 0.00 0.00 52 1026.2
20230208004544 60 308 4.3 7.0 0.00 0.00 0.00 51 1026.2
20230208003040 60 293 2.6 7.8 0.00 0.00 0.00 50 1026.3
20230208001541 61 315 4.3 7.8 0.00 0.00 0.00 49 1026.3
20230208000038 61 333 2.6 5.2 0.00 0.00 0.00 49 1026.4
20230207234536 61 299 3.5 6.1 0.00 0.00 0.00 48 1026.4
20230207233034 61 344 3.5 7.0 0.00 0.00 0.00 48 1026.7
20230207231536 60 344 3.5 7.0 0.00 0.00 0.00 49 1026.7
20230207230033 60 341 2.6 7.8 0.00 0.00 0.00 48 1026.8
20230207224530 60 280 2.6 7.0 0.00 0.00 0.00 49 1026.7
20230207223030 60 310 4.3 7.8 0.00 0.00 0.00 48 1026.8
20230207221528 60 280 2.6 7.8 0.00 0.00 0.00 49 1027.1
20230207220026 60 328 2.6 7.8 0.00 0.00 0.00 49 1027.2
20230207214525 60 306 2.6 6.1 0.00 0.00 0.00 48 1027.2
20230207213030 59 337 2.6 7.0 0.00 0.00 0.00 49 1027.4
20230207211523 59 351 1.7 5.2 0.00 0.00 0.00 49 1027.5
20230207210024 58 358 1.7 6.1 0.00 0.00 0.00 50 1027.7
20230207204522 59 318 4.3 7.8 0.00 0.00 0.00 48 1028.1
20230207203018 58 308 3.5 0.0 0.00 0.00 0.00 49 1028.3
20230207201518 58 334 6.1 8.7 0.00 0.00 0.00 50 1028.5
20230207200017 57 9 3.5 7.0 0.00 0.00 0.00 51 1028.7
20230207194514 57 332 2.6 7.0 0.00 0.00 0.00 52 1028.8
20230207193012 56 340 4.3 7.0 0.00 0.00 0.00 52 1029.1
20230207191509 56 338 3.5 7.0 0.00 0.00 0.00 55 1029.1
20230207190007 55 282 2.6 5.2 0.00 0.00 0.00 56 1029.2
20230207184505 54 5 0.0 5.2 0.00 0.00 0.00 59 1029.3
20230207183101 53 285 1.7 3.5 0.00 0.00 0.00 60 1029.3
20230207181557 52 271 2.6 4.3 0.00 0.00 0.00 61 1029.3
20230207180103 52 360 1.7 3.5 0.00 0.00 0.00 64 1029.2
20230207174553 51 313 0.0 2.6 0.00 0.00 0.00 66 1029.4
20230207173100 49 149 0.0 2.6 0.00 0.00 0.00 70 1029.4
20230207171544 48 88 0.9 3.5 0.00 0.00 0.00 71 1029.2
20230207170047 47 81 0.9 3.5 0.00 0.00 0.00 74 1029.4
20230207164550 46 125 0.9 4.3 0.00 0.00 0.00 75 1029.5